Time,TemperatureF,DewpointF,PressureIn,WindDirection,WindDirectionDegrees,WindSpeedMPH,WindSpeedGustMPH,Humidity,HourlyPrecipIn,Conditions,Clouds,dailyrainin,SoftwareType,DateUTC
2013-09-19 00:20:00,66.0,65.4,29.79,East,90,0.0,7.0,98,0.00,,SKC,0.00,VWS V14.01,2013-09-19 05:20:00,
2013-09-19 00:40:00,66.2,65.6,29.79,ENE,68,0.0,5.9,98,0.00,,SKC,0.00,VWS V14.01,2013-09-19 05:40:00,
2013-09-19 01:00:00,66.2,65.6,29.82,SSE,158,1.3,7.0,98,0.00,,SKC,0.00,VWS V14.01,2013-09-19 06:00:00,
2013-09-19 01:20:00,66.0,65.4,29.82,SE,135,0.0,6.7,98,0.00,,SKC,0.00,VWS V14.01,2013-09-19 06:20:00,
2013-09-19 01:40:00,66.0,65.4,29.82,NW,315,0.0,4.3,98,0.00,,SKC,0.00,VWS V14.01,2013-09-19 06:40:00,
2013-09-19 02:00:00,65.7,65.1,29.82,ESE,112,0.0,3.9,98,0.00,,SKC,0.00,VWS V14.01,2013-09-19 07:00:00,
2013-09-19 02:20:00,65.5,64.9,29.82,SE,135,0.0,7.0,98,0.00,,SKC,0.00,VWS V14.01,2013-09-19 07:20:00,
2013-09-19 02:40:00,65.5,64.9,29.82,ESE,112,0.0,4.7,98,0.00,,SKC,0.00,VWS V14.01,2013-09-19 07:40:00,
2013-09-19 03:00:00,65.3,64.7,29.82,North,0,0.0,5.5,98,0.00,,SKC,0.00,VWS V14.01,2013-09-19 08:00:00,
2013-09-19 03:19:00,65.1,64.5,29.79,East,90,0.0,0.0,98,0.00,,SKC,0.00,VWS V14.01,2013-09-19 08:19:00,
2013-09-19 03:40:00,65.1,64.5,29.79,NE,45,0.0,5.1,98,0.00,,SKC,0.00,VWS V14.01,2013-09-19 08:40:00,
2013-09-19 04:00:00,64.8,64.2,29.79,ENE,68,0.0,3.5,98,0.00,,SKC,0.00,VWS V14.01,2013-09-19 09:00:00,
2013-09-19 04:19:00,64.8,64.2,29.79,ENE,68,0.0,4.7,98,0.00,,SKC,0.00,VWS V14.01,2013-09-19 09:19:00,
2013-09-19 04:40:00,65.1,64.5,29.79,ENE,68,0.0,5.9,98,0.00,,SKC,0.00,VWS V14.01,2013-09-19 09:40:00,
2013-09-19 05:00:00,65.3,64.7,29.76,ENE,68,1.3,5.1,98,0.00,,SKC,0.00,VWS V14.01,2013-09-19 10:00:00,
2013-09-19 05:20:00,65.5,64.9,29.76,ESE,112,0.0,4.7,98,0.00,,SKC,0.00,VWS V14.01,2013-09-19 10:20:00,
2013-09-19 05:39:00,65.3,64.7,29.76,NE,45,0.0,4.7,98,0.00,,SKC,0.00,VWS V14.01,2013-09-19 10:39:00,
2013-09-19 06:00:00,64.6,64.0,29.76,East,90,0.0,2.7,98,0.00,,SKC,0.00,VWS V14.01,2013-09-19 11:00:00,
2013-09-19 06:20:00,64.2,63.7,29.76,ENE,68,0.0,0.0,98,0.00,,SKC,0.00,VWS V14.01,2013-09-19 11:20:00,
2013-09-19 06:40:00,64.6,64.0,29.79,ENE,68,0.0,3.5,98,0.00,,SKC,0.00,VWS V14.01,2013-09-19 11:40:00,
2013-09-19 07:00:00,65.7,65.1,29.76,ESE,112,1.5,7.4,98,0.00,,SKC,0.00,VWS V14.01,2013-09-19 12:00:00,
2013-09-19 07:20:00,65.8,65.3,29.79,ENE,68,0.0,4.3,98,0.00,,SKC,0.00,VWS V14.01,2013-09-19 12:20:00,
2013-09-19 07:40:00,66.0,65.4,29.79,ENE,68,3.6,6.7,98,0.00,,SKC,0.00,VWS V14.01,2013-09-19 12:40:00,
2013-09-19 08:00:00,66.6,66.0,29.76,East,90,3.1,5.5,98,0.00,,SKC,0.00,VWS V14.01,2013-09-19 13:00:00,
2013-09-19 08:20:00,67.1,66.5,29.76,South,180,0.0,7.4,98,0.00,,SKC,0.00,VWS V14.01,2013-09-19 13:20:00,
2013-09-19 08:40:00,67.6,67.1,29.76,ESE,112,0.0,12.1,98,0.00,,SKC,0.00,VWS V14.01,2013-09-19 13:40:00,
2013-09-19 09:00:00,68.4,67.8,29.76,WSW,248,2.8,9.8,98,0.00,,SKC,0.00,VWS V14.01,2013-09-19 14:00:00,
2013-09-19 09:20:00,68.7,68.1,29.76,SE,135,0.0,10.6,98,0.00,,SKC,0.00,VWS V14.01,2013-09-19 14:20:00,
2013-09-19 09:40:00,69.1,68.5,29.76,SW,225,2.8,8.2,98,0.00,,SKC,0.00,VWS V14.01,2013-09-19 14:40:00,
2013-09-19 10:00:00,69.8,69.2,29.79,NE,45,3.6,8.2,98,0.00,,SKC,0.00,VWS V14.01,2013-09-19 15:00:00,
2013-09-19 10:20:00,69.8,69.2,29.79,ENE,68,0.0,16.8,98,0.00,,SKC,0.00,VWS V14.01,2013-09-19 15:20:00,
2013-09-19 10:40:00,70.0,69.4,29.79,NE,45,0.0,11.0,98,0.00,,SKC,0.00,VWS V14.01,2013-09-19 15:40:00,
2013-09-19 11:00:00,70.2,69.6,29.76,NNW,338,0.0,6.7,98,0.00,,SKC,0.00,VWS V14.01,2013-09-19 16:00:00,
2013-09-19 11:20:00,71.6,70.7,29.74,WNW,292,4.4,10.2,97,0.00,,SKC,0.00,VWS V14.01,2013-09-19 16:20:00,
2013-09-19 11:40:00,72.1,70.9,29.76,ENE,68,0.0,13.3,96,0.00,,SKC,0.00,VWS V14.01,2013-09-19 16:40:00,
2013-09-19 12:00:00,71.8,70.6,29.76,South,180,1.8,6.7,96,0.00,,SKC,0.00,VWS V14.01,2013-09-19 17:00:00,
2013-09-19 12:20:00,71.1,70.2,29.76,East,90,0.0,5.1,97,0.00,,SKC,0.00,VWS V14.01,2013-09-19 17:20:00,
2013-09-19 12:40:00,70.7,70.1,29.76,South,180,0.0,4.7,98,0.00,,SKC,0.00,VWS V14.01,2013-09-19 17:40:00,
2013-09-19 13:00:00,70.0,69.4,29.79,NE,45,1.5,5.5,98,0.05,,SKC,0.05,VWS V14.01,2013-09-19 18:00:00,
2013-09-19 13:20:00,69.6,69.0,29.76,SSW,202,4.9,10.6,98,0.46,,SKC,0.46,VWS V14.01,2013-09-19 18:20:00,
2013-09-19 13:39:00,65.7,65.1,29.79,East,90,0.0,25.1,98,1.13,,SKC,1.13,VWS V14.01,2013-09-19 18:39:00,
2013-09-19 14:00:00,65.1,64.5,29.79,ESE,112,0.0,0.0,98,1.21,,SKC,1.21,VWS V14.01,2013-09-19 19:00:00,
2013-09-19 14:20:00,65.1,64.5,29.74,East,90,0.0,0.0,98,1.16,,SKC,1.21,VWS V14.01,2013-09-19 19:20:00,
2013-09-19 14:40:00,65.7,65.1,29.71,NE,45,0.0,0.0,98,0.75,,SKC,1.21,VWS V14.01,2013-09-19 19:40:00,
2013-09-19 14:59:00,65.8,65.3,29.71,SW,225,2.6,5.5,98,0.12,,SKC,1.25,VWS V14.01,2013-09-19 19:59:00,
2013-09-19 15:20:00,66.7,66.2,29.74,WNW,292,0.0,10.2,98,0.04,,SKC,1.25,VWS V14.01,2013-09-19 20:20:00,
2013-09-19 15:40:00,67.1,66.5,29.74,SSW,202,0.0,11.0,98,0.04,,SKC,1.25,VWS V14.01,2013-09-19 20:40:00,
2013-09-19 15:59:00,68.2,67.6,29.74,SSW,202,2.3,9.8,98,0.04,,SKC,1.25,VWS V14.01,2013-09-19 20:59:00,
2013-09-19 16:20:00,68.4,67.8,29.76,SSW,202,0.0,12.5,98,0.00,,SKC,1.25,VWS V14.01,2013-09-19 21:20:00,
2013-09-19 16:40:00,68.5,68.0,29.74,WSW,248,6.9,11.4,98,0.00,,SKC,1.25,VWS V14.01,2013-09-19 21:40:00,
2013-09-19 17:00:00,68.5,68.0,29.76,SSE,158,0.0,10.6,98,0.00,,SKC,1.25,VWS V14.01,2013-09-19 22:00:00,
2013-09-19 17:20:00,68.4,67.8,29.74,SSE,158,4.9,8.2,98,0.00,,SKC,1.25,VWS V14.01,2013-09-19 22:20:00,
2013-09-19 17:40:00,68.2,67.6,29.74,South,180,0.0,9.8,98,0.00,,SKC,1.25,VWS V14.01,2013-09-19 22:40:00,
2013-09-19 18:00:00,67.8,67.2,29.74,SSW,202,0.0,4.3,98,0.00,,SKC,1.25,VWS V14.01,2013-09-19 23:00:00,
2013-09-19 18:19:00,67.6,67.1,29.79,SSE,158,0.0,1.6,98,0.00,,SKC,1.25,VWS V14.01,2013-09-19 23:19:00,
2013-09-19 18:40:00,67.3,66.7,29.79,SSE,158,0.0,7.0,98,0.00,,SKC,1.25,VWS V14.01,2013-09-19 23:40:00,
2013-09-19 19:00:00,66.9,66.3,29.76,SSE,158,0.0,0.0,98,0.00,,SKC,1.25,VWS V14.01,2013-09-20 00:00:00,
2013-09-19 19:20:00,66.7,66.2,29.76,SSE,158,0.0,0.0,98,0.00,,SKC,1.25,VWS V14.01,2013-09-20 00:20:00,
2013-09-19 19:40:00,66.6,66.0,29.79,SSE,158,0.0,0.0,98,0.00,,SKC,1.25,VWS V14.01,2013-09-20 00:40:00,
2013-09-19 20:00:00,66.4,65.8,29.79,SSE,158,0.0,4.3,98,0.00,,SKC,1.25,VWS V14.01,2013-09-20 01:00:00,
2013-09-19 20:20:00,65.8,65.3,29.79,South,180,0.0,2.3,98,0.00,,SKC,1.25,VWS V14.01,2013-09-20 01:20:00,
2013-09-19 20:39:00,65.7,65.1,29.79,South,180,0.0,3.5,98,0.00,,SKC,1.25,VWS V14.01,2013-09-20 01:39:00,
2013-09-19 21:00:00,65.7,65.1,29.79,SSE,158,0.0,7.0,98,0.00,,SKC,1.25,VWS V14.01,2013-09-20 02:00:00,
2013-09-19 21:19:00,65.7,65.1,29.79,SSE,158,1.3,5.1,98,0.00,,SKC,1.25,VWS V14.01,2013-09-20 02:19:00,
2013-09-19 21:40:00,65.7,65.1,29.79,SE,135,0.0,5.1,98,0.00,,SKC,1.25,VWS V14.01,2013-09-20 02:40:00,
2013-09-19 22:00:00,65.7,65.1,29.76,South,180,0.0,5.5,98,0.00,,SKC,1.25,VWS V14.01,2013-09-20 03:00:00,
2013-09-19 22:20:00,65.7,65.1,29.76,SSW,202,0.0,3.9,98,0.00,,SKC,1.25,VWS V14.01,2013-09-20 03:20:00,
2013-09-19 22:40:00,65.7,65.1,29.76,SSE,158,0.0,7.0,98,0.00,,SKC,1.25,VWS V14.01,2013-09-20 03:40:00,
2013-09-19 22:59:00,65.5,64.9,29.76,SSE,158,0.0,2.3,98,0.00,,SKC,1.25,VWS V14.01,2013-09-20 03:59:00,
2013-09-19 23:20:00,65.5,64.9,29.79,South,180,2.3,5.1,98,0.00,,SKC,1.25,VWS V14.01,2013-09-20 04:20:00,
2013-09-19 23:40:00,65.5,64.9,29.79,South,180,0.0,4.7,98,0.00,,SKC,1.25,VWS V14.01,2013-09-20 04:40:00,